User: anonymous   Login
Location: Moonridge Observatory
(39.2268°N, 77.7914°W)
Time: 18:09:19
(UTC-05:00)
Language:

CZ-2C R/B - Orbit

View from above orbital plane
View from above orbital plane
View from above satellite
View from above satellite

Ground track
Ground track

The orbit data is extracted from the following two-line orbital elements,

1 28480U 04046B   17324.32797840 +.00000037 +00000-0 +28918-4 0  9995
2 28480 098.1941 050.4528 0143052 123.5704 279.8945 14.25657094676463
Epoch (UTC): 20 November 2017 07:52:17
Eccentricity: 0.0143052
inclination: 98.1941°
perigee height: 703 km
apogee height: 909 km
right ascension of ascending node: 50.4528°
argument of perigee: 123.5704°
revolutions per day: 14.25657094
mean anomaly at epoch: 279.8945°
orbit number at epoch: 67646

The dashed part of the orbit path shows where the satellite is in the earth's shadow,  

DLR